FW0600 Weather Reports


time (UTC)temp
C
wind
direction
speed
KPH
gust
KPH
rain 1hr
cm
rain 24hr
cm
rain mn
cm
humidity
%
barometer
mb
20260509184534 11 138 0.0 3.2 0.00 0.00 0.00 88 1026.0
20260509183030 11 167 0.0 3.2 0.00 0.00 0.00 88 1025.9
20260509181522 11 177 0.0 3.2 0.00 0.00 0.00 88 1025.7
20260509180020 11 162 0.0 3.2 0.00 0.00 0.00 88 1025.8
20260509174523 11 140 0.0 3.2 0.00 0.00 0.00 88 1025.8
20260509173018 11 165 0.0 3.2 0.00 0.00 0.00 88 1025.9
20260509171516 11 134 0.0 0.0 0.00 0.00 0.00 87 1026.0
20260509170019 11 120 0.0 1.6 0.00 0.00 0.00 87 1026.0
20260509164514 11 163 0.0 1.6 0.00 0.00 0.00 87 1026.0
20260509163015 11 166 0.0 1.6 0.00 0.00 0.00 87 1025.9
20260509161511 11 169 0.0 1.6 0.00 0.00 0.00 87 1026.0
20260509160009 12 150 0.0 3.2 0.00 0.00 0.00 86 1026.0
20260509154507 12 152 0.0 3.2 0.00 0.00 0.00 86 1026.0
20260509153008 12 161 0.0 3.2 0.00 0.00 0.00 86 1025.9
20260509151505 12 173 0.0 1.6 0.00 0.00 0.00 86 1026.0
20260509150004 12 169 0.0 1.6 0.00 0.00 0.00 86 1026.1
20260509144503 12 148 0.0 1.6 0.00 0.00 0.00 86 1026.1
20260509143004 12 126 0.0 1.6 0.00 0.00 0.00 86 1026.0
20260509141600 12 136 0.0 1.6 0.00 0.00 0.00 86 1026.1
20260509134557 12 135 0.0 1.6 0.00 0.00 0.00 86 1026.0
20260509133056 12 132 0.0 3.2 0.00 0.00 0.00 86 1026.0
20260509131557 12 148 0.0 0.0 0.00 0.00 0.00 85 1026.0
20260509130106 12 148 0.0 0.0 0.00 0.00 0.00 85 1026.0
20260509124556 13 157 0.0 1.6 0.00 0.00 0.00 85 1026.1
20260509123053 13 154 0.0 1.6 0.00 0.00 0.00 84 1026.1
20260509121606 13 134 0.0 1.6 0.00 0.00 0.00 84 1026.2
20260509120051 13 154 0.0 1.6 0.00 0.00 0.00 84 1026.3
20260509114558 13 162 0.0 3.2 0.00 0.00 0.00 84 1026.1
20260509113055 13 140 0.0 1.6 0.00 0.00 0.00 84 1026.0
20260509111546 13 144 0.0 1.6 0.00 0.00 0.00 84 1026.0
20260509110048 13 133 0.0 1.6 0.00 0.00 0.00 84 1026.0
20260509104545 13 118 0.0 1.6 0.00 0.00 0.00 85 1026.0
20260509103052 13 350 0.0 0.0 0.00 0.00 0.00 85 1025.9
20260509101557 13 348 0.0 0.0 0.00 0.00 0.00 85 1025.8
20260509100040 13 348 0.0 0.0 0.00 0.00 0.00 82 1025.8
20260509094542 13 348 0.0 0.0 0.00 0.00 0.00 83 1025.6
20260509093036 13 348 0.0 0.0 0.00 0.00 0.00 82 1025.6
20260509091534 14 348 0.0 0.0 0.00 0.00 0.00 82 1025.4
20260509090037 14 348 0.0 0.0 0.00 0.00 0.00 80 1025.1
20260509084529 14 348 0.0 0.0 0.00 0.00 0.00 77 1025.0
20260509083035 15 348 0.0 0.0 0.00 0.00 0.00 76 1024.8
20260509081529 15 348 0.0 0.0 0.00 0.00 0.00 74 1024.7
20260509080025 16 348 0.0 0.0 0.00 0.00 0.00 71 1024.6
20260509074523 16 348 0.0 0.0 0.00 0.00 0.00 71 1024.4
20260509073028 17 349 0.0 0.0 0.00 0.00 0.00 69 1024.2
20260509071518 17 349 0.0 0.0 0.00 0.00 0.00 68 1024.1
20260509070018 17 349 0.0 1.6 0.00 0.00 0.00 66 1023.7
20260509064517 18 91 0.0 1.6 0.00 0.00 0.00 65 1023.7
20260509063021 18 178 0.0 1.6 0.00 0.00 0.00 64 1023.8
20260509061520 18 102 0.0 3.2 0.00 0.00 0.00 62 1023.9
20260509060015 19 34 0.0 4.8 0.00 0.00 0.00 61 1023.4
20260509054514 20 289 0.0 4.8 0.00 0.00 0.00 60 1023.5
20260509053010 20 106 0.0 4.8 0.00 0.00 0.00 58 1023.2
20260509051509 21 331 0.0 4.8 0.00 0.00 0.00 57 1023.3
20260509050014 21 211 0.0 3.2 0.00 0.00 0.00 56 1023.1
20260509044509 21 156 0.0 4.8 0.00 0.00 0.00 56 1023.1
20260509043008 21 241 0.0 4.8 0.00 0.00 0.00 55 1023.2
20260509041507 21 259 0.0 4.8 0.00 0.00 0.00 55 1023.1
20260509040009 21 141 0.0 4.8 0.00 0.00 0.00 56 1022.9
20260509034507 21 128 1.6 6.4 0.00 0.00 0.00 55 1023.0
20260509033005 21 186 1.6 6.4 0.00 0.00 0.00 56 1023.1
20260509031507 21 272 0.0 4.8 0.00 0.00 0.00 55 1023.4
20260509030006 21 221 1.6 6.4 0.00 0.00 0.00 54 1023.4
20260509024506 21 101 0.0 4.8 0.00 0.00 0.00 54 1023.8
20260509023001 21 194 0.0 4.8 0.00 0.00 0.00 54 1023.9
20260509021602 21 168 0.0 6.4 0.00 0.00 0.00 54 1024.1
20260509020106 21 31 1.6 6.4 0.00 0.00 0.00 54 1024.2
20260509014555 21 254 0.0 4.8 0.00 0.00 0.00 53 1024.2
20260509013049 21 316 0.0 3.2 0.00 0.00 0.00 54 1024.4
20260509011548 21 103 0.0 3.2 0.00 0.00 0.00 54 1024.3
20260509010043 20 284 0.0 1.6 0.00 0.00 0.00 57 1024.6
20260509004549 20 156 1.6 6.4 0.00 0.00 0.00 57 1024.7
20260509003038 20 162 0.0 3.2 0.00 0.00 0.00 59 1024.8
20260509001532 19 116 0.0 4.8 0.00 0.00 0.00 60 1024.7
20260509000026 18 128 0.0 4.8 0.00 0.00 0.00 61 1024.8
20260508234522 18 186 0.0 4.8 0.00 0.00 0.00 62 1024.9
20260508233017 17 304 0.0 4.8 0.00 0.00 0.00 65 1024.9
20260508231512 17 166 0.0 8.0 0.00 0.00 0.00 67 1024.8
20260508230008 16 71 0.0 4.8 0.00 0.00 0.00 69 1024.7
20260508224503 15 124 0.0 4.8 0.00 0.00 0.00 70 1024.7
20260508223059 15 185 0.0 8.0 0.00 0.00 0.00 72 1024.5
20260508221555 14 140 1.6 4.8 0.00 0.00 0.00 73 1024.6
20260508220054 13 196 1.6 6.4 0.00 0.00 0.00 75 1024.7
20260508214546 13 66 1.6 6.4 0.00 0.00 0.00 76 1024.5
20260508213043 12 153 0.0 8.0 0.00 0.00 0.00 78 1024.4
20260508211536 12 119 1.6 8.0 0.00 0.00 0.00 79 1024.2
20260508210034 12 123 1.6 4.8 0.00 0.00 0.00 79 1023.9
20260508204533 12 276 0.0 4.8 0.00 0.00 0.00 79 1023.7
20260508203028 12 56 0.0 4.8 0.00 0.00 0.00 79 1023.2
20260508201527 12 129 0.0 4.8 0.00 0.00 0.00 78 1023.1
20260508200026 12 151 0.0 3.2 0.00 0.00 0.00 77 1023.0
20260508194520 13 175 0.0 3.2 0.00 0.00 0.00 75 1022.9
20260508193017 13 177 0.0 3.2 0.00 0.00 0.00 74 1022.7
20260508191515 13 189 0.0 3.2 0.00 0.00 0.00 74 1022.5
20260508190019 13 48 0.0 3.2 0.00 0.00 0.00 74 1022.4